Regional Weather Roundup
Issued by NWS

Home | Current Version | Previous Version | Text Only | Print | Product List | Glossary On
Versions: 1 2 3 4 5 6 7 8 9 10 11 12 13 14 15 16 17 18 19 20 21 22 23 24 25 26 27 28 29 30 31 32 33 34 35 36 37 38 39 40 41 42 43 44 45 46 47 48 49 50
000
ASUS43 KLSX 010507
RWRMO

WEATHER SUMMARY FOR MISSOURI
NATIONAL WEATHER SERVICE SPRINGFIELD MO
1200 AM CDT TUE SEP 01 2015

NOTE: "FAIR" INDICATES FEW OR NO CLOUDS BELOW 12,000 FEET WITH NO
       SIGNIFICANT WEATHER AND/OR OBSTRUCTIONS TO VISIBILITY.
       CURRENT SKY AND/OR WEATHER CONDITIONS ARE NOT AVAILABLE FOR
       CHILLICOTHE AND FARMINGTON.

MOZ001>031-035>038-043-044-053-054-010600-
...NORTHERN AND WESTERN MISSOURI...

CITY           SKY/WX    TMP DP  RH WIND       PRES   REMARKS
KANSAS CTY INT CLEAR     76  69  79 S10       29.99R
KANSAS C DTWN  CLEAR     80  69  69 SW9       29.98R
LEE`S SUMMIT   CLEAR     77  67  71 S9        30.01R
ST JOSEPH      CLEAR     73  69  87 S5        29.97R
CHILLICOTHE      N/A     73  70  90 CALM      30.00R
KIRKSVILLE     CLEAR     74  68  81 S7        30.02R

$$
MOZ066>068-077>081-088>096-101>105-010600-
...SOUTHWEST MISSOURI...

CITY           SKY/WX    TMP DP  RH WIND       PRES   REMARKS
SPRINGFIELD    CLEAR     74  68  81 S9        30.06S
JOPLIN         CLEAR     74  69  85 SE7       30.04R

$$
MOZ032>034-039>042-045>050-055>058-069>072-010600-
...CENTRAL MISSOURI...

CITY           SKY/WX    TMP DP  RH WIND       PRES   REMARKS
COLUMBIA       CLEAR     74  70  87 S6        30.04R
JEFFERSON CITY CLEAR     78  70  76 E5        30.03R
ROLLA          CLEAR     75  69  81 S9        30.06R
SEDALIA        CLEAR     76  69  79 S10       30.04R
WHITEMAN AFB   CLEAR     76  70  82 SW9       30.00S
WARRENSBURG    CLEAR     73  68  83 S3        30.01R
OSAGE BEACH    CLEAR     75  68  78 S6        30.06R

$$
MOZ051-052-059>065-010600-
...EAST CENTRAL MISSOURI...

CITY           SKY/WX    TMP DP  RH WIND       PRES   REMARKS
ST LOUIS INTL  PTCLDY    80  71  74 S6        30.06R
SPIRIT OF STL  FAIR      77  72  84 CALM      30.04R
ST CHARLES     CLEAR     75  73  93 E5        30.04R

$$
MOZ072>076-082>087-097>100-106>115-010600-
...SOUTH CENTRAL AND SOUTHEAST MISSOURI...

CITY           SKY/WX    TMP DP  RH WIND       PRES   REMARKS
CAPE GIRARDEAU CLEAR     71  68  90 CALM      30.07R
FARMINGTON     CLEAR     73  70  88 CALM      30.11S
POPLAR BLUFF   CLEAR     71  69  93 CALM      30.06R
WEST PLAINS    CLEAR     74  68  81 S5        30.10S

$$


USA.gov is the U.S. government's official web portal to all federal, state and local government web resources and services.